Location: Mauna Kea VIS
(19.7591°N, 155.4561°W)
Time: 22:49:32
(UTC-10:00)

BlueWalker 3 - Pass Details

Date: 17 December 2025
Orbit: 451 x 463 km, 53.2° (Epoch: 18 January)

Event Time Altitude Azimuth Distance (km) Brightness Sun altitude
Rises 05:31:40 0° 180° (S) 2,436 5.7 -17.9°
Reaches altitude 10° 05:34:40 10° 152° (SSE) 1,569 5.1 -17.3°
Maximum altitude 05:36:26 13° 122° (ESE) 1,383 5.3 -16.9°
Drops below altitude 10° 05:38:12 10° 92° (E) 1,574 5.6 -16.5°
Sets 05:41:13 0° 64° (ENE) 2,451 6.1 -15.8°
